Alexander City, AL

1:00 AM CST on February 14, 2016 (GMT -0600)
Russell

Weather History for KALX - July, 2013

Change the Weather History Date:

Wednesday, July 17, 2013

  Actual Average (KAUO) Record (KAUO)
Temperature  
Mean Temperature 85 °F -  
Max Temperature 95 °F - 102 °F (1980)
Min Temperature 75 °F - 59 °F (1967)
Cooling Degree Days 20    
Month to date cooling degree days  
Year to date cooling degree days  
Since 1 June cooling degree days  
Growing Degree Days 35 (Base 50)    
Moisture  
Dew Point 72 °F    
Average Humidity 69    
Maximum Humidity 89    
Minimum Humidity 43    
Precipitation  
Precipitation 0.02 in - 1.30 in (1988)
Month to date precipitation  
Year to date precipitation  
Sea Level Pressure  
Sea Level Pressure 30.24 in    
Wind  
Wind Speed 1 mph (NE)    
Max Wind Speed 10 mph    
Max Gust Speed -    
Visibility 9 miles    
Events Thunderstorm    
T = Trace of Precipitation, MM = Missing Value Source: NWS Daily Summary

Daily Weather History Graph

Daily Weather History Graph

Search for Another Location

Airport or City:

Trip Planner

Search our weather history database for the weather conditions in past years. The results will help you decide how hot, cold, wet, or windy it might be!

Date:

Astronomy

Jul. 17, 2013 Rise Set
Actual Time 5:47 AM CDT 7:52 PM CDT
Civil Twilight 5:19 AM CDT 8:19 PM CDT
Nautical Twilight 4:45 AM CDT 8:53 PM CDT
Astronomical Twilight 4:09 AM CDT 9:30 PM CDT
Moon 2:44 PM CDT (7/17) 12:48 AM CDT (7/17)
Length of Visible Light 15h 00m
Length of Day
14h 04m
Waxing Gibbous, 67% of the Moon is Illuminated
Jul 17
Waxing Gibbous
Jul 22
Full
Jul 29
Last Quarter
Aug 6
New
Aug 14
First Quarter

Hourly Weather History & Observations

Time (CDT) Temp. Heat Index Dew Point Humidity Pressure Visibility Wind Dir Wind Speed Gust Speed Precip Events Conditions
12:15 AM 75.6 °F - 71.8 °F 88% 30.28 in 7.0 mi Calm Calm - N/A   Clear
12:35 AM 75.9 °F - 72.1 °F 88% 30.28 in 10.0 mi Calm Calm - N/A   Clear
12:55 AM 75.6 °F - 71.8 °F 88% 30.27 in 7.0 mi Calm Calm - N/A   Clear
1:15 AM 75.6 °F - 72.0 °F 89% 30.26 in 7.0 mi Calm Calm - N/A   Clear
1:35 AM 75.6 °F - 72.0 °F 89% 30.26 in 7.0 mi Calm Calm - N/A   Clear
1:55 AM 75.6 °F - 72.1 °F 89% 30.26 in 7.0 mi Calm Calm - N/A   Clear
2:15 AM 75.6 °F - 72.1 °F 89% 30.26 in 7.0 mi Calm Calm - N/A   Clear
2:35 AM 75.6 °F - 72.0 °F 89% 30.25 in 7.0 mi Calm Calm - N/A   Clear
2:55 AM 75.6 °F - 71.8 °F 88% 30.26 in 7.0 mi Calm Calm - N/A   Clear
3:15 AM 75.6 °F - 71.6 °F 87% 30.25 in 7.0 mi Calm Calm - N/A   Clear
3:35 AM 75.6 °F - 71.6 °F 87% 30.25 in 7.0 mi Calm Calm - N/A   Clear
3:55 AM 75.6 °F - 71.8 °F 88% 30.25 in 7.0 mi Calm Calm - N/A   Clear
4:15 AM 75.6 °F - 71.6 °F 87% 30.26 in 7.0 mi Calm Calm - N/A   Clear
4:35 AM 75.6 °F - 71.6 °F 87% 30.26 in 7.0 mi Calm Calm - N/A   Clear
4:55 AM 75.6 °F - 72.0 °F 89% 30.27 in 7.0 mi Calm Calm - N/A   Clear
5:15 AM 75.6 °F - 72.0 °F 89% 30.27 in 7.0 mi Calm Calm - N/A   Clear
5:35 AM 75.6 °F - 71.8 °F 88% 30.27 in 10.0 mi Calm Calm - N/A   Clear
5:55 AM 75.6 °F - 71.8 °F 88% 30.27 in 7.0 mi Calm Calm - N/A   Clear
6:15 AM 75.6 °F - 71.6 °F 87% 30.28 in 7.0 mi Calm Calm - N/A   Clear
6:35 AM 75.6 °F - 71.6 °F 87% 30.29 in 10.0 mi Calm Calm - N/A   Clear
6:55 AM 75.6 °F - 71.1 °F 86% 30.29 in 10.0 mi Calm Calm - N/A   Clear
7:15 AM 78.1 °F - 72.7 °F 83% 30.30 in 10.0 mi Calm Calm - N/A   Clear
7:35 AM 78.1 °F - 71.8 °F 81% 30.30 in 10.0 mi Calm Calm - N/A   Clear
7:55 AM 80.6 °F 84.9 °F 72.5 °F 76% 30.31 in 10.0 mi Calm Calm - N/A   Clear
8:15 AM 81.3 °F 85.9 °F 72.5 °F 74% 30.31 in 10.0 mi Calm Calm - N/A   Clear
8:35 AM 83.3 °F 89.0 °F 72.7 °F 70% 30.31 in 10.0 mi East 3.5 mph - 0.01 in   Clear
8:55 AM 83.3 °F 89.0 °F 72.5 °F 70% 30.30 in 10.0 mi Calm Calm - 0.01 in   Clear
9:15 AM 84.2 °F 90.3 °F 72.7 °F 68% 30.30 in 10.0 mi Calm Calm - N/A   Clear
9:35 AM 85.6 °F 91.8 °F 72.3 °F 64% 30.30 in 10.0 mi ESE 3.5 mph - N/A   Clear
9:55 AM 88.2 °F 96.4 °F 73.8 °F 62% 30.29 in 10.0 mi ESE 3.5 mph - N/A   Clear
10:15 AM 88.7 °F 96.7 °F 73.4 °F 60% 30.29 in 10.0 mi North 3.5 mph - N/A   Scattered Clouds
10:35 AM 88.3 °F 95.0 °F 71.8 °F 58% 30.29 in 10.0 mi ENE 3.5 mph - N/A   Scattered Clouds
10:55 AM 90.7 °F 100.7 °F 74.5 °F 59% 30.29 in 10.0 mi North 5.8 mph - N/A   Scattered Clouds
11:15 AM 90.7 °F 99.0 °F 73.0 °F 56% 30.29 in 10.0 mi NE 3.5 mph - N/A   Scattered Clouds
11:35 AM 90.7 °F 98.5 °F 72.3 °F 55% 30.28 in 10.0 mi East 4.6 mph - N/A   Scattered Clouds
11:55 AM 90.7 °F 97.4 °F 71.4 °F 53% 30.28 in 10.0 mi East 4.6 mph - N/A   Clear
12:15 PM 90.7 °F 96.4 °F 70.3 °F 51% 30.27 in 10.0 mi ENE 3.5 mph - N/A   Clear
12:35 PM 90.7 °F 96.4 °F 70.5 °F 51% 30.26 in 10.0 mi ENE 4.6 mph - N/A   Scattered Clouds
12:55 PM 90.7 °F 96.9 °F 71.1 °F 52% 30.26 in 10.0 mi East 4.6 mph - N/A   Scattered Clouds
1:15 PM 91.9 °F 97.4 °F 69.4 °F 48% 30.26 in 10.0 mi NNE 4.6 mph - N/A   Clear
1:35 PM 90.9 °F 95.8 °F 69.1 °F 49% 30.25 in 10.0 mi Calm Calm - N/A   Clear
1:55 PM 92.3 °F 98.1 °F 69.8 °F 48% 30.24 in 10.0 mi NNE 5.8 mph - N/A   Scattered Clouds
2:15 PM 91.8 °F 97.0 °F 69.3 °F 48% 30.23 in 10.0 mi Calm Calm - N/A   Scattered Clouds
2:35 PM 93.4 °F 98.6 °F 69.4 °F 45% 30.23 in 10.0 mi East 3.5 mph - N/A   Scattered Clouds
2:55 PM 94.6 °F 100.5 °F 69.6 °F 44% 30.21 in 10.0 mi Calm Calm - 0.01 in   Clear
3:15 PM 93.9 °F 98.6 °F 68.5 °F 43% 30.21 in 10.0 mi Calm Calm - N/A   Clear
3:35 PM 95.0 °F 101.9 °F 70.3 °F 45% 30.20 in 10.0 mi Calm Calm - N/A   Scattered Clouds
3:55 PM 95.9 °F 103.8 °F 71.2 °F 45% 30.19 in 10.0 mi Calm Calm - N/A   Scattered Clouds
4:15 PM 95.9 °F 102.5 °F 69.8 °F 43% 30.18 in 10.0 mi Calm Calm - N/A   Scattered Clouds
4:35 PM 95.9 °F 103.8 °F 71.2 °F 45% 30.18 in 10.0 mi Calm Calm - N/A   Scattered Clouds
4:55 PM 92.1 °F 97.7 °F 69.8 °F 48% 30.17 in 10.0 mi Calm Calm - N/A   Clear
5:15 PM 90.7 °F 96.4 °F 70.3 °F 51% 30.16 in 10.0 mi Calm Calm - N/A   Clear
5:35 PM 90.7 °F 105.9 °F 78.4 °F 67% 30.16 in 10.0 mi Calm Calm - N/A   Clear
5:55 PM 90.7 °F 98.5 °F 72.3 °F 55% 30.16 in 10.0 mi NNW 3.5 mph - N/A   Clear
6:15 PM 90.7 °F 101.3 °F 75.2 °F 60% 30.16 in 10.0 mi NW 4.6 mph - N/A   Clear
6:35 PM 90.7 °F 102.6 °F 76.3 °F 62% 30.18 in 10.0 mi NW 4.6 mph - N/A   Clear
6:55 PM 87.8 °F 97.6 °F 75.2 °F 66% 30.17 in 10.0 mi NW 5.8 mph - N/A   Clear
7:15 PM 87.8 °F 97.6 °F 75.4 °F 66% 30.18 in 10.0 mi NNW 6.9 mph - N/A   Clear
7:35 PM 86.9 °F 95.4 °F 74.3 °F 66% 30.18 in 10.0 mi NNW 3.5 mph - N/A   Scattered Clouds
7:55 PM 84.9 °F 91.4 °F 72.7 °F 67% 30.18 in 10.0 mi North 10.4 mph - N/A   Clear
8:15 PM 84.4 °F 89.7 °F 71.6 °F 65% 30.19 in 10.0 mi North 6.9 mph - N/A Thunderstorm Clear
8:35 PM 83.3 °F 87.6 °F 70.3 °F 65% 30.19 in 10.0 mi NE 4.6 mph - N/A   Clear
8:55 PM 83.3 °F 88.4 °F 71.6 °F 68% 30.18 in 10.0 mi NNE 4.6 mph - N/A   Clear
9:15 PM 81.9 °F 85.8 °F 70.5 °F 68% 30.18 in 10.0 mi NNE 4.6 mph - N/A Thunderstorm Clear
9:35 PM 81.9 °F 86.2 °F 71.1 °F 70% 30.18 in 10.0 mi Calm Calm - N/A   Clear
9:55 PM 81.7 °F 86.0 °F 71.6 °F 71% 30.17 in 10.0 mi NNE 3.5 mph - N/A   Clear
10:15 PM 80.8 °F 84.1 °F 69.8 °F 69% 30.18 in 10.0 mi Calm Calm - N/A   Clear
10:35 PM 80.6 °F 83.9 °F 69.8 °F 70% 30.18 in 10.0 mi Calm Calm - N/A   Clear
10:55 PM 80.6 °F 84.2 °F 70.9 °F 72% 30.19 in 10.0 mi East 4.6 mph - N/A   Clear
11:15 PM 80.6 °F 84.9 °F 72.5 °F 76% 30.21 in 10.0 mi East 6.9 mph - N/A   Scattered Clouds
11:35 PM 78.3 °F - 70.5 °F 77% 30.21 in 10.0 mi East 5.8 mph - N/A   Scattered Clouds
11:55 PM 78.1 °F - 69.8 °F 76% 30.21 in 10.0 mi East 5.8 mph - N/A Thunderstorm Clear